Weather History for KHON - March, 2013

Change the Weather History Date:

Monday, March 25, 2013

  Actual Average Record
Temperature  
Mean Temperature 18 °F 37 °F  
Max Temperature 27 °F 48 °F 80 °F (1908)
Min Temperature 9 °F 26 °F -14 °F (1893)
Degree Days  
Heating Degree Days 47 28  
Month to date heating degree days 1068 828  
Since 1 July heating degree days 6894 6660  
Cooling Degree Days 0 0  
Month to date cooling degree days 0 0  
Year to date cooling degree days 0 0  
Moisture  
Dew Point 16 °F    
Average Humidity 77    
Maximum Humidity 89    
Minimum Humidity 54    
Precipitation  
Precipitation T in 0.06 in 1.87 in (1942)
Month to date precipitation 0.78 1.07  
Year to date precipitation 2.16 2.17  
Snow  
Snow T in 0.30 in 2.40 in (1901)
Month to date snowfall 7.2 7.5  
Since 1 July snowfall 40.4 38.5  
Snow Depth 4.00 in    
Sea Level Pressure  
Sea Level Pressure 30.35 in    
Wind  
Wind Speed 14 mph (NNW)    
Max Wind Speed 25 mph    
Max Gust Speed 30 mph    
Visibility 9 miles    
Events Snow    
T = Trace of Precipitation, MM = Missing Value Source: NWS Daily Summary

Daily Weather History Graph

Daily Weather History Graph

Search for Another Location

Airport or City:

Trip Planner

Search our weather history database for the weather conditions in past years. The results will help you decide how hot, cold, wet, or windy it might be!

Date:

Astronomy

Mar. 25, 2013 Rise Set
Actual Time 7:26 AM CDT 7:51 PM CDT
Civil Twilight 6:57 AM CDT 8:21 PM CDT
Nautical Twilight 6:22 AM CDT 8:55 PM CDT
Astronomical Twilight 5:47 AM CDT 9:30 PM CDT
Moon 6:23 PM CDT (3/25) 6:13 AM CDT (3/25)
Length of Visible Light 13h 23m
Length of Day
12h 25m
Waxing Gibbous, 96% of the Moon is Illuminated
Mar 25
Waxing Gibbous
Mar 27
Full
Apr 2
Last Quarter
Apr 10
New
Apr 18
First Quarter

Hourly Weather History & Observations

Time (CDT) Temp. Windchill Dew Point Humidity Pressure Visibility Wind Dir Wind Speed Gust Speed Precip Events Conditions
12:55 AM 23.0 °F 9.6 °F 19.9 °F 88% 30.29 in 10.0 mi NNW 16.1 mph - 0.00 in   Overcast
1:55 AM 23.0 °F 8.7 °F 19.0 °F 85% 30.28 in 8.0 mi NNW 18.4 mph - N/A   Overcast
2:55 AM 21.9 °F 6.9 °F 19.0 °F 89% 30.28 in 5.0 mi NNW 19.6 mph - N/A   Overcast
3:55 AM 21.0 °F 6.6 °F 17.1 °F 85% 30.28 in 10.0 mi NNW 17.3 mph - N/A   Overcast
4:55 AM 19.9 °F 4.8 °F 16.0 °F 85% 30.29 in 10.0 mi NNW 18.4 mph - N/A   Partly Cloudy
5:55 AM 19.9 °F 4.8 °F 16.0 °F 85% 30.30 in 10.0 mi NNW 18.4 mph - N/A   Overcast
6:55 AM 19.0 °F 4.5 °F 15.1 °F 85% 30.32 in 10.0 mi NNW 16.1 mph - N/A   Overcast
7:55 AM 19.0 °F 4.0 °F 15.1 °F 85% 30.34 in 10.0 mi NNW 17.3 mph - N/A   Overcast
8:55 AM 19.9 °F 5.7 °F 15.1 °F 81% 30.36 in 10.0 mi NNW 16.1 mph - N/A   Overcast
9:55 AM 21.0 °F 7.1 °F 15.1 °F 78% 30.37 in 10.0 mi NNW 16.1 mph - N/A   Overcast
10:55 AM 21.9 °F 7.3 °F 15.1 °F 75% 30.38 in 10.0 mi North 18.4 mph - N/A   Overcast
11:55 AM 24.1 °F 9.8 °F 16.0 °F 71% 30.38 in 10.0 mi NNW 19.6 mph 26.5 mph N/A   Overcast
12:55 PM 25.0 °F 10.6 °F 15.1 °F 66% 30.38 in 10.0 mi NNW 20.7 mph 28.8 mph N/A   Overcast
1:18 PM 24.8 °F 10.7 °F 15.8 °F 69% 30.32 in 10.0 mi NNW 19.6 mph 29.9 mph N/A   Overcast
1:29 PM 24.8 °F 10.3 °F 15.8 °F 69% 30.32 in 10.0 mi NNW 20.7 mph - N/A   Overcast
1:55 PM 25.0 °F 10.9 °F 17.1 °F 72% 30.38 in 10.0 mi NNW 19.6 mph 25.3 mph N/A   Overcast
2:27 PM 26.6 °F 13.8 °F 17.6 °F 69% 30.32 in 10.0 mi NNW 17.3 mph - N/A   Overcast
2:55 PM 26.1 °F 12.7 °F 17.1 °F 69% 30.38 in 9.0 mi North 18.4 mph - 0.00 in Snow Light Snow
3:55 PM 25.0 °F 12.2 °F 17.1 °F 72% 30.38 in 10.0 mi NNW 16.1 mph - 0.00 in   Overcast
4:39 PM 26.6 °F 15.2 °F 17.6 °F 69% 30.32 in 10.0 mi North 13.8 mph - N/A   Overcast
4:52 PM 24.8 °F 11.9 °F 17.6 °F 74% 30.32 in 10.0 mi NNW 16.1 mph - N/A   Overcast
4:55 PM 25.0 °F 12.6 °F 17.1 °F 72% 30.38 in 10.0 mi North 15.0 mph - N/A   Overcast
5:07 PM 24.8 °F 13.4 °F 17.6 °F 74% 30.32 in 5.0 mi North 12.7 mph - 0.00 in Snow Light Snow
5:14 PM 24.8 °F 13.4 °F 17.6 °F 74% 30.32 in 6.0 mi North 12.7 mph - 0.00 in Snow Light Snow
5:55 PM 25.0 °F 14.2 °F 18.0 °F 75% 30.39 in 9.0 mi North 11.5 mph - 0.00 in   Overcast
6:55 PM 24.1 °F 14.4 °F 19.0 °F 81% 30.40 in 6.0 mi North 9.2 mph - 0.00 in Snow Light Snow
7:31 PM 23.0 °F 14.7 °F 17.6 °F 80% 30.34 in 10.0 mi North 6.9 mph - 0.00 in   Overcast
7:55 PM 21.9 °F 13.4 °F 17.1 °F 82% 30.41 in 10.0 mi North 6.9 mph - 0.00 in   Overcast
8:55 PM 21.0 °F 14.6 °F 16.0 °F 81% 30.41 in 10.0 mi North 4.6 mph - 0.00 in   Overcast
9:55 PM 19.0 °F 12.3 °F 15.1 °F 85% 30.42 in 10.0 mi NNW 4.6 mph - N/A   Overcast
10:55 PM 14.0 °F 6.5 °F 10.9 °F 88% 30.42 in 10.0 mi NW 4.6 mph - N/A   Clear
11:55 PM 10.9 °F 2.9 °F 8.1 °F 88% 30.42 in 10.0 mi WNW 4.6 mph - N/A   Clear